[[{"header":{"parameterUnit":"m.s-1","parameterCategory":1,"la1":30.2991,"la2":30.254,"lo1":-89.0895,"lo2":-89.0444,"dy":0.0017,"dx":0.0017,"nx":28,"ny":28,"refTime":"2026-02-05T03:00:00:Z","depth":0,"parameterNumber":2,"parameterNumberName":"U-component_of_WINDS"},"data":[0,0,0,0,0,0,0,0,0,0,0,0,0,0,0,0,0,0,0,0,0,0,0,0,0,0,0,0,0,0,0,0,0,0,0,0,0,0,0,0,0,0,0,0,0,0,0,0,0,0,0,0,0,0,0,0,0,0,4.995,4.9952,0,5.0157,5.016,5.0162,5.0092,5.0088,5.0083,5.0079,5.0296,5.0306,5.0315,0,0,0,0,0,0,0,0,0,0,0,0,0,4.9497,4.9506,4.995,4.9952,4.9955,5.0157,5.016,5.0163,5.0093,5.0088,5.0082,5.0077,5.0293,5.0304,5.0316,0,0,0,0,0,0,0,0,0,0,0,0,0,4.9698,4.9509,4.9949,4.9945,4.9946,5.0156,5.016,5.0163,5.0094,5.0088,5.0081,5.0074,5.0289,5.0303,5.0318,5.0546,0,0,5.0364,5.037,0,0,0,0,0,0,0,0,4.9687,4.9715,4.9943,4.9945,4.9947,5.0092,5.0079,5.0292,5.0096,5.0038,5.0079,5.0071,5.0234,5.0253,5.0307,5.0557,5.0566,5.0365,5.0374,5.0381,5.0385,0,0,0,0,0,0,0,4.9673,4.9706,5.0032,4.9946,4.9949,4.9933,4.9954,5.0119,5.0172,5.0043,5.0038,5.0064,5.0234,5.0293,5.0311,5.0569,5.0365,5.0378,5.0387,5.0393,5.1016,5.1023,0,0,0,0,0,0,4.9657,4.9694,5.0025,5.0038,4.9798,4.9947,4.997,5.0053,5.017,5.0181,5.0069,5.006,5.027,5.0294,5.0319,5.0593,5.0381,5.0395,5.0403,5.1008,5.1017,5.1026,0,0,0,0,0,0,4.9648,4.9687,5.0017,4.9865,4.9906,4.9962,5.0055,5.006,5.0119,5.019,5.0199,5.0119,5.0266,5.0298,5.049,5.06,5.0401,5.0415,5.0999,5.1011,5.1022,5.1144,0,0,0,0,0,0,4.9635,4.9684,4.9771,4.9868,4.9914,5.0184,5.0061,5.0069,5.0144,5.0134,5.0239,5.025,5.0263,5.0468,5.0505,5.0617,5.0427,5.099,5.1005,5.1018,5.113,5.1158,5.1182,0,0,0,0,0,4.9619,4.9798,4.9776,4.9816,5.0024,5.019,5.0217,5.0227,5.0153,5.0241,5.0287,5.0247,5.0582,5.0488,5.0529,5.0647,5.0983,5.1,5.1017,5.1119,5.1153,5.1181,0,0,0,0,0,0,4.9715,4.9811,4.9787,5.0003,5.0089,5.0178,5.0289,5.0263,5.0373,5.0358,5.0367,5.0392,5.0589,5.0637,5.0531,5.0874,5.0771,5.0797,5.0835,5.0868,5.0893,5.0877,5.0439,0,0,0,0,0,4.9761,4.9887,4.9965,5.0148,5.0192,5.0234,5.0307,5.0307,5.0397,5.0433,5.0493,5.0583,5.0708,5.0791,5.091,5.1137,5.1159,5.1238,5.1264,5.1285,5.1307,5.143,5.1466,5.1081,5.1081,5.1081,0,0,4.9858,4.9926,5.0005,5.0169,5.0235,5.0367,5.0265,5.0408,5.0506,5.0456,5.064,5.0687,5.0788,5.0998,5.1094,5.1045,5.1418,5.1307,5.1322,5.1334,5.1451,5.1487,5.152,5.1093,5.1091,5.1089,0,0,5.0101,5.0165,5.0324,5.0393,5.0494,5.052,5.0559,5.0653,5.0681,5.0866,5.083,5.0948,5.1164,5.1237,5.1302,5.1572,5.154,5.1611,5.1746,5.1865,5.1895,5.1922,5.2018,5.2052,5.1633,5.1634,5.1634,0,5.0209,5.0404,5.041,5.0556,5.0629,5.0587,5.0748,5.0815,5.0951,5.1003,5.0946,5.1215,5.128,5.1506,5.1572,5.1627,5.1671,5.1599,5.189,5.1917,5.1943,5.2034,5.207,5.1642,5.1641,5.164,5.1639,0,5.0531,5.0667,5.0784,5.0914,5.1,5.1153,5.1183,5.1269,5.1262,5.1295,5.1483,5.156,5.1694,5.1748,5.1743,5.1974,5.194,5.1887,5.1784,5.1987,5.2073,5.2108,5.1653,5.165,5.1648,5.1646,0,0,5.0841,5.0971,5.1014,5.1072,5.1181,5.1287,5.1438,5.1567,5.1641,5.1737,5.1864,5.2047,5.1998,5.2073,5.2076,5.2181,5.2389,5.2115,5.2117,5.2162,5.2647,5.2686,5.2726,5.2368,5.2374,5.238,5.2638,0,5.1092,5.1356,5.1365,5.1607,5.1733,5.1695,5.1827,5.1908,5.1943,5.2055,5.2094,5.2223,5.2149,5.2194,5.2296,5.2342,5.2486,5.2323,5.2487,5.2492,5.2461,5.2771,5.2813,5.3053,5.2672,5.2678,5.2682,0,5.1421,5.1524,5.1778,5.1868,5.1921,5.2039,5.2157,5.2265,5.2357,5.2375,5.2457,5.2445,5.26,5.2492,5.2707,5.2596,5.2663,5.2696,5.2705,5.2721,5.2599,5.2794,5.313,5.3165,5.2735,5.2731,5.2727,0,5.162,5.1823,5.2001,5.2052,5.2161,5.2245,5.2295,5.238,5.2456,5.2561,5.261,5.2732,5.2799,5.2894,5.2915,5.2834,5.3129,5.3023,5.3149,5.3148,5.3212,5.3208,5.3563,5.3257,5.3257,5.3256,5.3255,0,5.1899,5.2056,5.2091,5.2201,5.2375,5.2384,5.2557,5.2601,5.2677,5.2794,5.277,5.2881,5.2902,5.3018,5.3036,5.321,5.3241,5.326,5.3263,5.3262,5.3259,5.3306,5.3289,5.3265,5.3263,5.3261,5.326,0,5.2151,5.2181,5.2372,5.2459,5.2485,5.261,5.2685,5.279,5.2821,5.297,5.3006,5.3056,5.3191,5.3221,5.3383,5.3394,5.3601,5.3588,5.357,5.3568,5.3691,5.3679,5.4088,5.4142,5.3802,5.3805,5.3808,0,5.2327,5.2446,5.2546,5.2622,5.2675,5.2798,5.2876,5.289,5.2972,5.3085,5.3177,5.3309,5.3415,5.3633,5.3684,5.3807,5.3797,5.3931,5.3815,5.381,5.3798,5.379,5.3801,5.3953,5.3957,5.396,5.3963,0,5.2636,5.2644,5.2756,5.2874,5.2966,5.306,5.3149,5.3214,5.324,5.3333,5.347,5.3553,5.3716,5.3848,5.3971,5.4023,5.3998,5.3999,5.4034,5.4034,5.4018,5.4027,5.3629,5.3989,5.3987,5.3985,5.3983,5.3982,5.2854,5.2958,5.3043,5.3169,5.3237,5.3321,5.3423,5.3467,5.3581,5.3713,5.3715,5.3865,5.3953,5.4116,5.4175,5.4293,5.4251,5.4303,5.4316,5.4328,5.4338,5.4,5.4316,5.4315,5.4314,5.4314,5.4313,0,5.3161,5.3213,5.3329,5.3453,5.3552,5.3518,5.3615,5.37,5.3831,5.3915,5.4019,5.4176,5.4304,5.4365,5.4491,5.4573,5.4565,5.4606,5.4599,5.4612,5.4369,5.4325,5.461,5.461,5.461,5.461,5.461,5.461,5.3331,5.3504,5.3523,5.373,5.3782,5.3927,5.3985,5.4062,5.4129,5.4305,5.441,5.4448,5.4523,5.4654,5.4769,5.4784,5.4831,5.4878,5.4887,5.4659,5.4629,5.46,5.4559,5.4888,5.4889,5.512,5.5122,5.5123]},{"header":{"parameterUnit":"m.s-1","parameterCategory":1,"la1":30.2991,"la2":30.254,"lo1":-89.0895,"lo2":-89.0444,"dy":0.0017,"dx":0.0017,"nx":28,"ny":28,"refTime":"2026-02-05T03:00:00:Z","depth":0,"parameterNumber":3,"parameterNumberName":"V-component_of_WINDS"},"data":[0,0,0,0,0,0,0,0,0,0,0,0,0,0,0,0,0,0,0,0,0,0,0,0,0,0,0,0,0,0,0,0,0,0,0,0,0,0,0,0,0,0,0,0,0,0,0,0,0,0,0,0,0,0,0,0,0,0,1.1323,1.1322,0,1.1252,1.1251,1.125,1.1191,1.119,1.119,1.1189,1.1114,1.1113,1.1111,0,0,0,0,0,0,0,0,0,0,0,0,0,1.1403,1.1402,1.1323,1.1322,1.1321,1.1252,1.1251,1.125,1.1191,1.119,1.119,1.1189,1.1115,1.1113,1.1111,0,0,0,0,0,0,0,0,0,0,0,0,0,1.1354,1.1402,1.1323,1.1283,1.1279,1.1252,1.1251,1.125,1.1191,1.119,1.119,1.1189,1.1115,1.1113,1.1111,1.1116,0,0,1.1104,1.1103,0,0,0,0,0,0,0,0,1.1357,1.1351,1.129,1.1286,1.1281,1.1229,1.1252,1.1205,1.1192,1.1225,1.1189,1.1188,1.1153,1.1148,1.1136,1.1113,1.111,1.1104,1.1103,1.1102,1.1101,0,0,0,0,0,0,0,1.136,1.1354,1.1295,1.1289,1.1284,1.1268,1.126,1.1242,1.1195,1.1222,1.1217,1.121,1.115,1.1139,1.1134,1.1108,1.1104,1.1102,1.1101,1.11,1.1082,1.1083,0,0,0,0,0,0,1.137,1.1357,1.1297,1.1292,1.1318,1.1267,1.1258,1.1247,1.1195,1.1186,1.1211,1.1207,1.1143,1.1137,1.1131,1.1132,1.1102,1.11,1.1099,1.1082,1.1083,1.1083,0,0,0,0,0,0,1.1372,1.1366,1.13,1.1323,1.1314,1.1267,1.1255,1.1246,1.1234,1.1187,1.1177,1.1208,1.1142,1.1134,1.112,1.1129,1.1099,1.1097,1.1081,1.1082,1.1083,1.1136,0,0,0,0,0,0,1.1375,1.1367,1.137,1.1324,1.1313,1.1291,1.1255,1.1245,1.1231,1.1226,1.1181,1.1173,1.114,1.1123,1.1118,1.1126,1.1095,1.108,1.1081,1.1083,1.1133,1.1139,1.1144,0,0,0,0,0,1.1378,1.1387,1.137,1.1363,1.1316,1.1292,1.1285,1.1248,1.1232,1.1233,1.1202,1.1174,1.1129,1.1123,1.1116,1.1123,1.1079,1.1081,1.1082,1.1131,1.1138,1.1144,0,0,0,0,0,0,1.1435,1.1381,1.1361,1.1356,1.1329,1.1282,1.1283,1.1257,1.1234,1.123,1.1184,1.1174,1.1165,1.1142,1.1136,1.1124,1.11,1.11,1.1139,1.1145,1.115,1.1156,1.1094,0,0,0,0,0,1.1447,1.1434,1.1386,1.1387,1.1374,1.1331,1.1319,1.1293,1.1263,1.1251,1.1219,1.119,1.1168,1.1155,1.1134,1.1129,1.1117,1.1131,1.1136,1.114,1.1141,1.1135,1.114,1.1089,1.1089,1.1089,0,0,1.1472,1.144,1.1435,1.1397,1.1373,1.1358,1.1322,1.1309,1.1297,1.1249,1.1233,1.1208,1.1172,1.1163,1.1157,1.1143,1.1152,1.1143,1.1147,1.1145,1.1137,1.1142,1.1146,1.1091,1.109,1.109,0,0,1.1509,1.1485,1.1482,1.1458,1.1422,1.1393,1.1392,1.1348,1.133,1.1314,1.1276,1.1261,1.1226,1.1201,1.1184,1.1209,1.1181,1.1203,1.123,1.1225,1.1229,1.1232,1.1239,1.1243,1.1204,1.1204,1.1204,0,1.1545,1.1523,1.1483,1.1471,1.1455,1.141,1.1405,1.1384,1.1342,1.1331,1.1317,1.1271,1.1243,1.1226,1.1232,1.122,1.1216,1.1208,1.1231,1.1234,1.1237,1.1243,1.1246,1.1207,1.1207,1.1206,1.1206,0,1.1567,1.1551,1.1553,1.1514,1.1497,1.1489,1.1447,1.1434,1.1409,1.138,1.1363,1.1328,1.1297,1.1291,1.1266,1.1269,1.1262,1.124,1.1215,1.1245,1.125,1.1252,1.1211,1.121,1.1209,1.1208,0,0,1.164,1.1578,1.1579,1.1559,1.1515,1.1502,1.149,1.1461,1.145,1.1422,1.141,1.138,1.1359,1.1339,1.1311,1.1306,1.1325,1.1284,1.1282,1.1292,1.1324,1.1341,1.1344,1.1307,1.1307,1.1307,1.1327,0,1.167,1.1648,1.1611,1.16,1.1585,1.1541,1.153,1.1501,1.1473,1.1455,1.1423,1.1403,1.1377,1.1365,1.1358,1.1325,1.1331,1.1323,1.1293,1.1293,1.1304,1.1347,1.1365,1.1386,1.1329,1.1329,1.1329,0,1.1702,1.1677,1.1665,1.162,1.1611,1.1603,1.1571,1.1555,1.1519,1.1499,1.1476,1.1445,1.1428,1.1405,1.138,1.1375,1.136,1.1341,1.1341,1.1337,1.1313,1.1343,1.1391,1.1394,1.1332,1.1332,1.1332,0,1.1755,1.1718,1.1705,1.169,1.1638,1.1632,1.161,1.1574,1.1557,1.1529,1.1517,1.1487,1.147,1.1447,1.1406,1.1394,1.1385,1.1359,1.1366,1.1367,1.1367,1.1367,1.1412,1.1358,1.1358,1.1358,1.1358,0,1.1792,1.1787,1.1728,1.1721,1.1712,1.1668,1.166,1.1633,1.1601,1.1585,1.1545,1.1531,1.148,1.1459,1.1427,1.141,1.1403,1.1385,1.1376,1.1388,1.139,1.1378,1.1375,1.1359,1.1359,1.1359,1.1358,0,1.1851,1.1812,1.1795,1.1746,1.1733,1.1729,1.1686,1.1675,1.1645,1.1626,1.1618,1.157,1.1543,1.1501,1.1462,1.144,1.1428,1.1414,1.144,1.1435,1.1444,1.1443,1.1482,1.1484,1.143,1.1431,1.1431,0,1.1877,1.1872,1.1821,1.1809,1.1788,1.1768,1.1751,1.1706,1.1689,1.1647,1.1641,1.1612,1.1586,1.1544,1.1505,1.1473,1.1458,1.1474,1.1453,1.1464,1.1457,1.1458,1.1456,1.1479,1.148,1.148,1.1481,0,1.1927,1.1908,1.1885,1.1855,1.1836,1.181,1.1782,1.1773,1.1722,1.1705,1.1677,1.1657,1.1616,1.1586,1.1549,1.1524,1.1493,1.1487,1.1487,1.1499,1.1514,1.1505,1.1453,1.1487,1.1486,1.1486,1.1486,1.1485,1.1969,1.1962,1.1925,1.19,1.1874,1.1848,1.1836,1.1803,1.178,1.1744,1.1718,1.1692,1.1653,1.16,1.1576,1.1553,1.154,1.154,1.154,1.154,1.1544,1.1518,1.1546,1.1546,1.1546,1.1546,1.1545,0,1.2016,1.199,1.1968,1.193,1.191,1.1883,1.185,1.1834,1.1812,1.1779,1.1754,1.1721,1.1691,1.1648,1.1614,1.1604,1.1589,1.1596,1.1597,1.1591,1.1559,1.1562,1.1609,1.1609,1.1609,1.1609,1.1609,1.1609,1.2039,1.2024,1.1999,1.197,1.1942,1.1917,1.19,1.1875,1.1848,1.1814,1.1789,1.1761,1.1723,1.1686,1.1656,1.1644,1.1633,1.1645,1.1628,1.1599,1.1593,1.1588,1.159,1.1643,1.1643,1.1662,1.1662,1.1662]}]]